Wind_Speed
27 25 24 23 23 24 25 28 30 29 29 30 32 34 33 31 31 31 30 31 32 32 32 32 32 31 31 31 31 31 30 30 30 30 30 29 28 27 26 25 25 25 25 24
31 29 28 28 27 26 27 28 29 30 31 32 34 34 35 32 32 32 31 31 32 33 34 33 33 32 32 33 33 33 33 32 33 33 32 31 31 30 29 28 28 27 26 25
32 31 31 31 28 29 30 30 31 31 32 32 33 34 35 33 33 32 31 32 32 33 34 34 33 33 34 33 34 35 35 35 34 34 34 33 33 33 33 31 30 30 29 28
33 33 35 32 29 30 32 32 32 33 34 35 34 34 33 32 32 33 33 32 32 33 34 34 34 34 35 35 36 36 36 35 35 35 35 35 35 34 34 33 32 32 31 30
33 33 34 31 30 31 33 33 34 35 35 35 35 35 34 33 34 34 34 33 32 33 35 35 36 36 36 37 37 37 37 36 36 37 37 36 35 34 35 34 33 34 33 33
34 34 33 31 31 32 34 33 34 34 35 34 34 35 35 35 34 34 34 35 34 35 36 37 37 37 37 37 38 38 37 38 38 38 39 38 36 35 35 34 35 35 35 35
34 34 33 32 33 33 34 35 34 34 34 33 34 35 36 36 35 35 35 35 36 37 37 37 38 38 38 38 39 39 39 40 39 38 38 37 37 36 35 35 35 36 35 35
32 33 33 33 33 34 35 34 33 34 33 33 34 34 35 35 35 35 36 36 36 35 36 37 37 38 39 39 39 39 38 38 38 38 36 37 37 37 37 37 37 36 36 36
32 33 34 32 32 33 33 34 34 34 35 33 33 34 34 34 34 34 34 35 36 35 35 35 35 36 36 37 38 38 37 37 37 37 37 38 38 39 38 38 38 38 37 36
34 34 33 32 32 33 33 33 34 34 34 33 35 35 34 32 31 32 34 35 36 36 36 35 36 36 36 37 38 37 37 36 35 35 36 37 37 37 37 37 37 37 37 37
34 33 33 33 32 32 33 33 33 34 34 33 34 35 34 34 33 34 34 34 35 36 36 35 35 36 36 35 35 36 35 34 34 35 35 36 37 36 35 36 37 37 36 36
33 33 33 32 32 31 33 34 35 34 33 33 33 34 34 34 34 34 34 35 35 35 35 36 36 36 36 35 35 34 33 33 34 35 35 35 36 36 35 35 35 36 36 37
32 33 33 33 32 32 33 34 35 34 32 32 32 33 34 34 34 34 35 35 35 35 34 34 34 33 34 34 34 33 33 34 35 35 35 36 36 35 35 36 36 36 37 38
32 32 32 32 33 33 33 33 33 32 32 32 32 33 33 34 34 33 33 33 33 33 33 33 33 33 32 32 33 33 34 34 35 35 35 35 34 34 35 36 37 38 38 39
31 31 31 31 33 33 32 32 32 33 33 31 30 31 31 31 32 32 32 32 32 32 31 31 32 32 32 32 32 33 33 33 34 35 35 35 35 35 35 36 37 37 37 38
28 29 30 31 32 31 29 29 30 30 30 30 30 30 30 30 31 32 32 31 31 31 31 31 31 31 31 31 31 32 32 33 34 34 34 33 33 33 33 35 36 36 36 37
27 27 28 30 30 29 28 28 27 28 28 29 29 29 30 30 30 30 30 30 30 30 30 30 30 30 31 31 32 31 31 32 32 32 32 31 32 32 33 34 35 35 35 35
25 26 27 27 28 27 26 26 27 27 27 27 28 29 29 29 29 29 30 28 29 29 29 29 29 29 29 29 29 30 31 31 30 30 30 31 31 31 31 32 33 33 35 35
23 23 23 24 25 26 26 25 24 24 25 27 27 28 28 29 29 28 28 28 27 27 27 27 27 26 27 28 30 30 29 29 29 30 29 29 30 30 30 31 32 33 34 35
19 20 21 21 23 24 23 22 22 23 25 25 26 26 27 28 27 27 26 26 26 25 25 25 25 26 26 27 27 27 27 28 27 27 28 28 29 29 30 31 32 33 33 34
17 17 18 19 20 22 22 22 23 23 23 23 24 24 24 24 23 24 24 24 23 24 24 24 24 24 24 25 24 24 24 25 26 27 27 27 28 29 29 29 31 32 32 32
16 16 16 17 18 18 19 19 20 20 21 21 21 21 21 21 21 21 21 21 21 22 23 23 23 23 23 23 23 23 24 25 25 25 26 26 27 28 29 29 30 30 30 30
14 14 15 16 16 16 16 16 17 18 19 19 19 19 19 18 19 19 19 19 19 20 21 21 21 21 21 21 22 23 24 24 25 25 25 26 27 28 28 28 29 28 28 29
12 13 13 13 14 14 15 16 16 16 16 17 16 16 16 16 17 17 17 18 18 19 19 19 20 20 21 21 22 22 23 23 24 24 25 26 26 26 27 27 26 26 26 27
11 11 11 12 12 12 13 13 13 14 14 14 14 14 14 15 15 15 16 17 17 18 18 19 19 20 21 21 22 22 23 23 23 24 24 25 26 26 26 26 26 26 26 26
10 11 11 11 11 11 12 12 12 12 12 12 12 13 14 15 15 16 16 16 16 17 17 18 19 20 20 21 21 22 22 23 23 23 24 25 25 25 25 25 25 26 26 26
10 10 10 11 11 11 11 11 11 12 12 12 12 13 14 14 14 15 15 16 16 17 17 17 18 19 20 20 21 21 22 22 22 23 24 24 25 25 25 25 25 25 25 25
Wind_Direction
241 241 245 249 252 253 253 253 254 257 258 260 265 265 262 258 257 259 262 265 263 261 263 264 266 266 264 265 267 267 268 267 269 270 272 272 274 277 280 283 285 286 284 282
247 245 245 249 249 251 254 255 256 258 260 259 259 259 259 260 260 260 261 262 262 261 262 262 263 264 264 265 265 265 267 268 268 269 270 269 270 272 274 279 281 281 281 282
252 251 249 250 252 255 256 256 257 258 260 261 261 262 264 267 266 262 260 260 261 261 262 261 262 263 263 265 267 266 266 267 268 269 269 269 269 272 273 274 276 277 277 279
256 255 253 254 252 254 257 256 256 257 259 259 261 265 266 267 266 265 265 262 259 259 261 261 262 263 264 265 267 269 269 267 267 267 268 268 268 271 270 271 274 274 274 275
257 257 258 257 255 255 257 258 258 259 261 261 264 266 265 265 266 266 264 261 258 259 260 261 261 263 264 265 267 268 268 267 268 267 267 267 267 267 268 270 271 272 272 275
257 257 257 255 253 255 256 257 258 260 261 262 263 263 264 266 264 263 263 262 260 259 260 261 262 263 264 265 266 268 268 267 268 268 268 267 266 267 266 267 269 271 271 274
256 256 256 255 254 255 256 256 259 259 262 262 262 262 263 263 262 262 263 264 262 262 264 262 262 262 263 264 265 266 268 268 267 267 266 264 264 265 266 267 269 271 273 275
256 256 253 253 255 254 255 258 259 259 261 262 261 261 263 262 262 262 262 264 264 264 264 263 262 262 262 264 265 266 268 267 265 266 264 263 265 266 267 269 271 274 274 274
252 253 255 255 255 255 255 256 258 259 260 262 264 263 262 262 262 262 261 263 264 265 265 264 264 265 265 265 267 267 267 267 267 265 264 264 264 265 267 269 270 272 275 275
250 252 253 254 256 256 256 258 260 261 261 263 265 266 265 263 262 262 262 263 264 264 264 265 265 266 267 266 266 265 267 267 267 267 266 266 265 265 267 268 269 271 274 275
251 252 253 253 256 257 257 259 260 261 261 264 266 267 266 264 264 264 264 264 264 265 265 267 267 268 268 267 267 267 269 269 269 270 270 269 267 268 269 271 270 272 274 275
252 253 255 254 254 256 258 259 261 264 265 264 264 264 264 263 263 264 266 266 267 269 270 270 269 268 268 267 268 269 270 269 269 270 271 271 271 270 270 272 273 273 274 274
253 253 255 254 255 258 260 261 262 264 265 264 264 264 263 263 264 265 265 267 268 269 269 269 268 268 267 268 269 269 270 269 270 271 271 272 271 270 271 272 274 275 275 274
254 253 253 254 256 258 259 259 261 263 264 263 263 263 265 265 264 265 266 267 268 269 270 270 269 269 269 269 268 268 268 269 269 271 273 272 270 271 272 273 274 275 276 277
254 255 257 259 258 257 258 258 261 262 261 262 262 263 265 267 267 266 267 267 268 269 270 269 269 269 269 268 267 267 269 271 271 272 272 272 272 273 274 275 276 276 276 276
255 256 259 258 257 258 259 260 260 260 261 262 263 265 267 269 269 268 266 264 266 267 268 268 268 267 267 267 267 267 269 271 272 273 272 272 273 274 275 276 276 275 276 276
256 258 259 261 261 260 257 257 258 259 262 263 264 266 267 268 269 269 266 264 265 267 269 269 269 269 267 266 267 267 269 271 272 271 270 272 274 276 277 278 277 277 277 277
257 257 260 261 258 258 257 259 260 260 262 264 265 266 267 268 269 270 269 267 266 266 267 269 270 270 269 268 268 268 270 270 271 272 274 275 278 278 279 279 279 279 279 278
257 258 258 260 259 257 257 258 259 260 262 264 265 265 266 268 269 270 267 266 266 268 268 269 270 270 269 269 269 268 271 273 273 274 277 280 280 280 280 281 280 280 280 280
257 259 260 260 259 257 257 255 258 260 262 264 265 265 266 268 268 267 267 266 266 268 270 270 271 272 271 271 270 270 271 275 276 277 278 280 282 281 282 282 282 282 283 283
260 260 259 259 258 258 257 259 261 263 264 263 263 264 265 266 266 267 268 268 269 269 270 271 272 273 274 274 274 275 276 276 277 277 278 280 282 284 285 284 284 284 283 283
264 262 260 259 260 257 257 260 265 268 268 265 264 265 264 264 266 269 270 271 272 271 271 271 272 274 276 277 278 279 280 280 281 281 281 283 285 286 286 286 286 285 283 282
265 263 260 258 257 260 261 264 267 268 267 267 269 269 268 269 270 270 271 272 274 273 273 274 274 275 276 278 279 280 281 282 283 284 284 287 288 287 287 288 287 287 286 286
265 263 262 259 259 263 267 268 269 270 269 268 270 270 270 272 272 272 273 274 275 275 275 276 276 278 281 280 282 282 282 284 286 288 289 290 291 292 292 291 291 290 290 288
269 266 263 263 264 268 272 272 271 272 273 272 271 270 271 274 276 276 276 275 275 276 277 278 278 281 283 283 285 287 288 289 290 291 292 293 294 293 291 292 293 293 292 291
267 267 268 266 266 267 271 272 271 276 279 278 277 277 278 279 279 280 279 277 276 277 280 281 282 283 284 285 285 287 290 292 292 292 293 294 295 295 294 294 295 294 293 292
273 271 270 270 269 269 272 275 277 282 283 282 280 281 282 282 283 282 281 280 279 278 280 283 285 285 286 286 287 289 291 293 294 295 296 296 296 295 296 296 297 297 296 295
Height
5826 5828 5831 5832 5834 5836 5836 5837 5838 5839 5840 5840 5838 5836 5836 5838 5839 5840 5842 5843 5844 5844 5845 5845 5847 5848 5849 5849 5849 5850 5850 5850 5850 5851 5851 5851 5851 5851 5851 5850 5850 5850 5849 5849
5817 5820 5822 5823 5825 5827 5828 5829 5829 5830 5831 5830 5829 5828 5827 5828 5829 5831 5833 5835 5835 5836 5837 5837 5838 5839 5840 5841 5841 5842 5842 5842 5842 5842 5843 5843 5843 5843 5843 5844 5843 5843 5843 5842
5809 5811 5812 5814 5817 5818 5819 5820 5821 5821 5822 5821 5820 5819 5820 5821 5821 5823 5823 5825 5827 5827 5828 5828 5830 5831 5831 5832 5832 5832 5833 5833 5834 5834 5834 5834 5835 5835 5835 5835 5835 5835 5835 5834
5800 5802 5802 5808 5809 5809 5809 5810 5811 5811 5811 5812 5811 5811 5812 5813 5813 5814 5814 5815 5817 5818 5819 5820 5820 5821 5822 5823 5823 5823 5823 5823 5824 5825 5825 5825 5826 5826 5826 5826 5826 5826 5826 5826
5791 5792 5794 5799 5800 5799 5799 5800 5802 5801 5802 5803 5803 5802 5803 5803 5804 5804 5805 5806 5807 5808 5809 5810 5811 5811 5812 5812 5812 5813 5813 5814 5814 5815 5815 5816 5816 5817 5817 5817 5817 5817 5816 5816
5781 5783 5785 5789 5790 5789 5790 5791 5791 5791 5792 5793 5793 5793 5793 5793 5794 5795 5795 5796 5797 5799 5799 5799 5800 5801 5801 5802 5802 5802 5803 5803 5804 5804 5805 5806 5806 5806 5806 5806 5807 5807 5807 5807
5771 5772 5775 5778 5778 5780 5782 5782 5781 5782 5782 5784 5784 5784 5784 5784 5784 5785 5785 5786 5787 5788 5788 5789 5789 5789 5790 5790 5791 5791 5792 5792 5792 5793 5794 5795 5795 5795 5795 5796 5796 5797 5797 5797
5762 5763 5767 5767 5768 5770 5771 5771 5772 5773 5774 5774 5775 5774 5774 5775 5775 5775 5776 5777 5777 5778 5778 5778 5778 5778 5779 5779 5780 5779 5780 5779 5781 5782 5782 5783 5784 5785 5785 5786 5786 5786 5786 5787
5753 5755 5756 5756 5758 5759 5761 5762 5763 5764 5765 5766 5766 5765 5765 5766 5766 5766 5766 5767 5767 5768 5768 5768 5768 5768 5768 5769 5769 5769 5768 5769 5770 5771 5772 5773 5773 5774 5775 5775 5775 5776 5776 5776
5742 5744 5746 5748 5749 5750 5751 5752 5754 5755 5756 5756 5757 5757 5757 5757 5756 5757 5757 5758 5758 5759 5759 5759 5759 5759 5759 5759 5759 5759 5758 5759 5760 5760 5761 5762 5762 5763 5764 5764 5764 5764 5765 5765
5733 5735 5736 5738 5739 5741 5742 5743 5744 5745 5746 5747 5747 5747 5747 5747 5747 5748 5748 5749 5749 5749 5749 5749 5749 5750 5750 5749 5749 5749 5750 5750 5750 5750 5751 5752 5753 5753 5753 5754 5753 5753 5753 5754
5724 5726 5727 5729 5730 5732 5733 5734 5735 5736 5737 5737 5738 5739 5738 5738 5739 5739 5739 5740 5740 5740 5740 5740 5740 5740 5740 5740 5740 5740 5739 5740 5741 5741 5742 5742 5742 5743 5743 5743 5743 5743 5743 5743
5715 5716 5718 5720 5722 5723 5724 5724 5725 5726 5727 5728 5728 5729 5729 5729 5730 5730 5730 5730 5730 5730 5730 5730 5730 5730 5731 5731 5731 5731 5732 5732 5732 5732 5732 5733 5733 5733 5733 5733 5733 5732 5732 5732
5705 5708 5709 5711 5712 5714 5714 5715 5716 5717 5718 5718 5719 5719 5720 5720 5720 5721 5721 5721 5721 5721 5721 5721 5721 5722 5722 5722 5722 5722 5723 5723 5723 5722 5722 5722 5722 5722 5722 5722 5722 5722 5721 5720
5697 5699 5700 5701 5702 5704 5705 5706 5707 5708 5708 5709 5709 5710 5711 5711 5711 5711 5711 5711 5712 5712 5712 5712 5712 5713 5713 5713 5713 5714 5714 5714 5713 5713 5713 5712 5712 5711 5711 5711 5710 5710 5709 5709
5688 5690 5691 5691 5692 5694 5696 5697 5697 5698 5699 5700 5701 5701 5702 5702 5702 5702 5702 5702 5703 5703 5703 5703 5703 5703 5704 5704 5704 5705 5705 5705 5704 5703 5703 5702 5702 5701 5700 5700 5699 5698 5698 5697
5680 5681 5682 5683 5684 5686 5687 5689 5689 5688 5690 5691 5692 5693 5693 5693 5694 5694 5694 5693 5694 5695 5695 5695 5695 5694 5695 5695 5695 5695 5696 5695 5695 5694 5693 5692 5691 5691 5690 5689 5688 5687 5687 5686
5672 5674 5675 5676 5677 5677 5678 5680 5681 5680 5681 5682 5683 5684 5685 5685 5685 5685 5686 5685 5686 5686 5687 5687 5687 5686 5686 5686 5686 5686 5685 5685 5685 5684 5683 5682 5681 5680 5680 5679 5678 5677 5676 5674
5665 5666 5667 5668 5669 5670 5671 5672 5673 5672 5673 5674 5675 5675 5676 5676 5677 5677 5677 5677 5678 5678 5679 5679 5678 5678 5678 5677 5677 5677 5676 5676 5676 5675 5674 5673 5671 5670 5670 5669 5668 5666 5665 5663
5658 5660 5660 5661 5662 5663 5663 5664 5664 5664 5665 5666 5667 5667 5668 5668 5669 5669 5669 5669 5670 5670 5671 5671 5670 5670 5670 5669 5669 5668 5668 5668 5667 5667 5666 5665 5663 5662 5661 5659 5658 5656 5654 5653
5653 5653 5654 5655 5656 5656 5657 5657 5657 5657 5658 5659 5659 5660 5660 5661 5661 5661 5661 5662 5663 5662 5663 5663 5663 5663 5662 5662 5661 5660 5660 5659 5658 5658 5657 5656 5655 5654 5652 5650 5648 5646 5644 5642
5649 5649 5649 5650 5650 5650 5651 5652 5652 5652 5652 5653 5653 5653 5653 5654 5654 5654 5655 5655 5655 5655 5655 5655 5656 5656 5655 5655 5654 5654 5653 5651 5650 5649 5649 5648 5646 5645 5643 5641 5639 5636 5634 5633
5645 5645 5645 5645 5646 5646 5646 5646 5647 5647 5647 5647 5647 5647 5647 5648 5648 5648 5649 5649 5649 5649 5649 5649 5649 5649 5648 5648 5647 5647 5646 5644 5643 5642 5641 5639 5638 5636 5634 5632 5630 5627 5625 5623
5641 5641 5641 5642 5642 5642 5642 5642 5642 5642 5642 5642 5642 5642 5642 5642 5643 5643 5643 5643 5643 5643 5643 5643 5643 5642 5642 5641 5640 5639 5638 5637 5636 5635 5633 5631 5629 5627 5625 5623 5621 5619 5617 5615
5638 5639 5639 5639 5639 5639 5639 5638 5638 5638 5638 5637 5637 5638 5638 5638 5638 5638 5638 5638 5638 5638 5637 5637 5637 5636 5635 5635 5634 5632 5631 5630 5629 5628 5626 5624 5622 5620 5617 5615 5613 5610 5608 5606
5636 5636 5636 5636 5636 5636 5636 5635 5635 5634 5634 5633 5633 5633 5634 5634 5633 5633 5633 5633 5633 5633 5632 5632 5631 5630 5629 5628 5627 5626 5625 5623 5622 5620 5618 5616 5614 5612 5610 5607 5605 5603 5601 5599
5633 5633 5633 5633 5633 5633 5633 5632 5632 5631 5630 5630 5630 5630 5629 5629 5629 5629 5628 5628 5627 5627 5627 5626 5625 5624 5623 5622 5621 5619 5618 5617 5615 5613 5611 5609 5607 5604 5602 5600 5598 5595 5593 5591